EHI
0 0 0 0 0 0 0 0 0 0 0 0 0 0 0 0 0 0 0 0 0 0 0 0 0 0 0 0 0 0 0 0 0 0 0 0 0 0 0 0 0 0 0
0 0 0 0 0 0 0 0 0 0 0 0 0 0 0 0 0 0 0 0 0 0 0 0 0 0 0 0 0 0 0 0 0 0 0 0 0 0 0 0 0 0 0
0 0 0 0 0 0 0 0 0 0 0 0 0 0 0 0 0 0 0 0 0 0 0 0 0 0 0 0 0 0 0 0 0 0 0 0 0 0 0 0 0 0 0
0 0 0 0 0 0 0 0 0 0 0 0 0 0 0 0 0 0 0 0 0 0 0 0 0 0 0 0 0 0 0 0 0 0 0 0 0 0 0 0 0 0 0
0 0 0 0 0 0 0 0 0 0 0 0 0 0 0 0 0 0 0 0 0 0 0 0 0 0 0 0 0 0 0 0 0 0 0 0 0 0 0 0 0 0 0
0 0 0 0 0 0 0 0 0 0 0 0 0 0 0 0 0 0 0 0 0 0 0 0 0 0 0 0 0 0 0 0 0 0 0 0 0 0 0 0 0 0 0
0 0 0 0 0 0 0 0 0 0 0 0 0 0 0 0 0 0 0 0 0 0 0 0 0 0 0 0 0 0 0 0 0 0 0 0 0 0 0 0 0 0 0
0 0 0 0 0 0 0 0 0 0 0 0 0 0 0 0 0 0 0 0 0 0 0 0 0 0 0 0 0 0 0 0 0 0 0 0 0 0 0 0 0 0 0
0 0 0 0 0 0 0 0 0 0 0 0 0 0 0 0 0 0 0 0 0 0 0 0 0 0 0 0 0 0 0 0 0 0 0 0 0 0 0 0 0 0 0
0 0 0 0 0 0 0 0 0 0 0 0 0 0 0 0 0 0 0 0 0 0 0 0 0 0 0 0 0 0 0 0 0 0 0 0 0 0 0 0 0 0 0
0 0 0 0 0 0 0 0 0 0 0 0 0 0 0 0 0 0 0 0 0 0 0 0 0 0 0 0 0 0 0 0 0 0 0 0 0 0 0 0 0 0 0
0 0 0 0 0 0 0 0 0 0 0 0 0 0 0 0 0 0 0 0 0 0 0 0 0 0 0 0 0 0 0 0 0 0 0 0 0 0 0 0 0 0 0
0 0 0 0 0 0 0 0 0 0 0 0 0 0 0 0 0 0 0 0 0 0 0 0 0 0 0 0 0 0 0 0 0 0 0 0 0 0 0 0 0 0 0
0 0 0 0 0 0 0 0 0 0 0 0 0 0 0 0 0 0 0 0 0 0 0 0 0 0 0 0 0 0 0 0 0 0 0 0 0 0 0 0 0 0 0
0 0 0 0 0 0 0 0 0 0 0 0 0 0 0 0 0 0 0 0 0 0 0 0 0 0 0 0 0 0 0 0 0 0 0 0 0 0 0 0 0 0 0
0 0 0 0 0 0 0 0 0 0 0 0 0 0 0 0 0 0 0 0 0 0 0 0 0 0 0 0 0 0 0 0 0 0 0 0 0 0 0 0 0 0 0
0 0 0 0 0 0 0 0 0 0 0 0 0 0 0 0 0 0 0 0 0 0 0 0 0 0 0 0 0 0 0 0 0 0 0 0 0 0 0 0 0 0 0
0 0 0 0 0 0 0 0 0 0 0 0 0 0 0 0 0 0 0 0 0 0 0 0 0 0 0 0 0 0 0 0 0 0 0 0 0 0 0 0 0 0 0
0 0 0 0 0 0 0 0 0 0 0 0 0 0 0 0 0 0 0 0 0 0 0 0 0 0 0 0 0 0 0 0 0 0 0 0 0 0 0 0 0 0 0
0 0 0 0 0 0 0 0 0 0 0 0 0 0 0 0 0 0 0 0 0 0 0 0 0 0 0 0 0 0 0 0 0 0 0 0 0 0 0 0 0 0 0
0 0 0 0 0 0 0 0 0 0 0 0 0 0 0 0 0 0 0 0 0 0 0 0 0 0 0 0 0 0 0 0 0 0 0 0 0 0 0 0 0 0 0
0 0 0 0 0 0 0 0 0 0 0 0 0 0 0 0 0 0 0 0 0 0 0 0 0 0 0 0 0 0 0 0 0 0 0 0 0 0 0 0 0 0 0
0 0 0 0 0 0 0 0 0 0 0 0 0 0 0 0 0 0 0 0 0 0 0 0 0 0 0 0 0 0 0 0 0 0 0 0 0 0 0 0 0 0 0
0 0 0 0 0 0 0 0 0 0 0 0 0 0 0 0 0 0 0 0 0 0 0 0 0 0 0 0 0 0 0 0 0 0 0 0 0 0 0 0 0 0 0
0 0 0 0 0 0 0 0 0 0 0 0 0 0 0 0 0 0 0 0 0 0 0 0 0 0 0 0 0 0 0 0 0 0 0 0 0 0 0 0 0 0 0
0 0 0 0 0 0 0 0 0 0 0 0 0 0 0 0 0 0 0 0 0 0 0 0 0 0 0 0 0 0 0 0 0 0 0 0 0 0 0 0 0 0 0
Wind_Speed
10 14 18 17 15 14 12 11 10 10 9 9 9 10 10 10 10 11 11 11 11 12 12 13 13 13 13 14 14 15 15 15 16 16 16 16 15 15 15 14 13 12 16
13 16 19 18 16 15 13 12 11 10 9 9 9 9 9 9 10 10 10 10 11 11 11 12 12 13 13 13 14 14 14 14 14 14 13 13 15 15 15 15 14 11 15
14 17 19 18 17 15 14 13 11 10 9 8 8 8 8 8 9 9 9 9 10 10 11 11 12 12 12 12 12 13 13 13 13 12 11 10 11 14 14 14 14 14 14
14 16 16 19 17 16 14 13 12 11 10 9 9 8 8 8 8 8 8 8 9 9 10 10 10 11 11 11 11 11 12 12 12 9 8 9 9 12 13 13 13 13 13
14 15 16 19 18 16 15 14 13 11 10 9 9 8 7 7 7 7 7 8 8 8 8 9 9 9 10 10 10 10 10 10 9 8 8 8 8 10 11 11 11 11 11
15 15 17 19 18 17 16 15 13 12 11 10 9 8 7 7 7 7 6 6 6 7 7 7 8 8 8 8 9 9 9 8 5 7 7 7 7 9 10 10 10 10 10
15 14 16 19 18 17 16 15 14 13 12 10 9 8 8 7 6 6 6 5 5 5 5 6 6 6 6 7 7 7 7 6 4 5 5 6 7 8 8 8 8 8 9
13 14 15 19 18 17 16 16 15 13 12 11 10 9 8 7 6 6 5 5 4 4 4 4 4 5 5 5 5 6 6 4 2 3 4 5 7 6 6 7 7 7 7
12 13 13 15 16 17 16 15 15 14 13 12 10 9 8 7 7 6 6 5 4 3 2 2 2 3 3 3 3 3 4 4 3 2 3 3 7 6 5 5 5 5 5
11 13 13 14 14 14 14 14 14 13 12 12 11 9 8 7 7 6 7 6 5 3 3 2 1 0 1 1 1 1 1 3 2 3 3 3 7 7 5 4 4 4 4
11 12 13 13 13 12 12 12 13 12 11 10 10 9 8 7 7 6 6 6 5 5 5 4 4 3 3 2 2 1 3 4 3 4 4 4 8 9 7 6 6 6 6
14 14 13 12 12 11 9 9 9 9 9 9 8 9 7 6 5 4 5 6 5 4 5 5 5 5 6 4 3 5 5 5 5 5 4 7 10 11 11 9 9 9 8
11 13 13 13 11 11 8 8 6 6 6 8 9 8 6 6 5 5 4 5 6 5 6 4 6 5 6 5 5 5 6 6 5 5 6 9 12 13 14 13 12 12 11
10 12 13 13 12 11 10 8 7 6 6 6 7 9 7 5 5 5 5 5 5 5 6 6 5 7 8 8 9 9 8 6 6 5 6 11 14 15 16 16 16 15 15
10 11 13 13 14 12 10 8 8 8 7 8 7 8 9 7 7 7 6 6 7 6 6 7 8 9 9 9 9 10 10 10 10 9 6 12 16 17 18 19 19 18 18
9 10 11 13 14 13 11 10 8 8 8 8 7 9 10 8 7 7 8 7 7 7 7 8 9 9 8 8 10 11 12 12 11 11 10 10 16 19 20 21 21 21 21
6 8 10 11 12 13 13 12 8 7 8 8 8 9 10 10 9 8 8 8 8 8 9 9 10 9 9 9 12 13 12 12 12 13 12 10 11 16 21 23 24 24 24
3 5 7 7 10 11 10 10 8 7 8 8 8 8 11 12 11 10 9 9 9 8 7 8 9 9 9 10 10 10 10 10 14 14 13 12 11 10 15 22 25 26 26
4 5 5 6 7 8 8 7 7 6 7 7 7 7 9 11 11 10 9 9 9 7 8 8 9 9 10 11 11 10 11 11 12 13 15 15 14 13 12 16 24 27 28
8 7 6 5 5 5 5 5 4 6 6 6 7 8 10 9 10 10 9 11 10 8 9 9 11 10 10 10 11 12 12 13 13 13 15 14 14 16 16 16 14 17 26
10 9 7 6 5 4 3 3 3 4 5 5 6 9 10 10 10 10 9 10 9 9 11 12 10 11 10 8 9 10 12 15 15 13 12 13 14 15 15 15 13 12 11
11 10 8 7 5 4 3 2 1 2 3 3 4 6 8 9 9 8 10 9 9 8 11 11 10 8 7 7 6 8 9 9 10 10 10 11 12 11 13 15 15 14 12
11 9 7 7 6 4 3 2 1 1 2 2 3 3 5 6 8 9 10 9 9 9 9 10 10 11 9 8 8 8 8 8 8 6 10 10 11 11 12 12 15 15 15
9 8 8 8 6 5 3 1 1 1 2 3 3 3 4 5 6 7 8 9 9 8 10 10 10 9 11 10 8 9 11 10 9 9 7 9 11 12 14 12 13 14 15
8 7 7 7 7 5 3 1 1 2 3 3 4 4 4 3 4 5 7 7 8 8 10 11 10 11 10 11 10 9 11 11 13 12 14 13 12 12 12 14 13 13 15
6 6 6 6 6 5 3 2 2 3 4 4 5 5 4 3 3 4 5 7 8 8 9 10 10 12 12 13 11 11 11 10 10 12 15 15 15 13 14 12 12 13 13
Wind_Direction
171 166 169 170 165 163 158 152 142 133 125 118 109 102 96 92 88 83 79 76 73 69 66 66 65 63 61 60 59 58 57 56 53 50 49 56 61 61 60 56 54 56 55
162 164 169 169 166 165 162 155 149 142 134 127 120 111 104 99 93 87 81 77 74 71 67 66 66 64 62 62 61 61 60 59 56 53 51 54 58 60 58 55 54 56 57
157 163 168 169 167 167 164 158 155 151 144 137 130 120 113 108 101 93 87 82 77 73 70 67 67 66 64 63 62 61 61 59 55 50 54 52 53 58 57 55 55 55 55
160 164 168 166 169 169 166 161 159 156 150 144 135 127 123 116 107 101 95 89 82 77 72 70 70 70 67 65 64 63 60 56 50 46 51 46 44 55 55 53 53 53 52
163 168 164 167 171 171 169 165 164 162 158 154 146 140 133 124 114 107 101 93 86 81 75 71 70 72 71 67 65 64 60 52 48 54 54 46 41 51 52 50 49 48 47
166 170 165 171 172 173 172 170 169 168 165 163 157 154 148 137 126 116 109 101 94 88 80 74 71 70 74 72 67 64 58 45 45 56 50 42 35 46 48 48 47 45 43
168 171 168 173 175 176 176 174 173 173 172 171 167 166 159 150 141 131 125 116 107 97 88 80 73 69 69 71 69 64 55 33 36 54 43 36 29 37 40 40 40 39 37
170 173 170 176 179 179 180 179 178 179 179 178 176 176 170 163 156 150 146 138 129 114 97 83 74 68 63 66 68 63 53 16 26 39 32 26 21 25 33 27 26 28 26
175 178 177 178 182 184 185 184 183 185 185 185 184 185 181 176 175 172 166 163 158 143 123 99 77 62 55 58 64 67 59 16 313 352 341 358 355 357 14 12 5 6 8
182 186 185 184 183 186 187 188 188 190 191 192 190 190 187 187 191 189 188 181 182 183 182 187 194 241 9 15 21 62 92 256 292 280 277 324 330 324 331 333 329 328 331
191 194 193 192 187 189 190 185 190 192 195 197 196 188 193 206 201 197 193 185 204 211 216 223 232 236 236 232 266 246 239 273 287 278 275 298 300 300 298 294 292 292 292
195 196 197 197 193 192 190 189 196 197 197 204 206 200 206 213 213 213 160 200 218 231 234 241 242 228 237 242 207 217 255 269 275 264 261 272 280 284 283 279 274 273 273
198 195 201 200 198 198 193 197 197 198 199 206 210 208 209 212 212 219 214 201 213 220 233 217 231 239 250 260 269 258 269 277 267 266 257 257 268 274 275 274 270 267 265
205 201 201 202 202 204 204 200 203 203 203 205 206 212 211 215 223 228 231 234 234 228 239 244 250 250 253 254 257 263 262 256 259 262 260 254 260 265 269 270 269 266 263
211 206 204 204 204 204 209 210 210 211 210 211 211 214 220 223 227 231 237 238 242 245 243 247 253 258 258 258 255 258 261 261 259 255 254 250 254 258 262 265 265 265 263
215 209 203 205 207 206 209 214 215 217 215 222 218 222 223 230 235 237 244 244 248 248 251 255 259 263 263 261 262 259 259 260 257 256 254 252 248 251 254 258 260 261 262
214 207 203 205 208 210 214 218 223 223 224 226 227 229 229 234 240 243 249 250 250 251 253 256 262 265 266 266 264 263 262 260 259 257 255 253 250 245 247 252 254 257 258
180 184 189 194 206 211 215 220 223 228 232 234 236 236 236 240 244 249 252 255 256 256 254 255 259 259 260 262 266 266 262 259 260 260 257 251 250 250 246 246 249 251 253
113 136 158 179 193 203 212 219 228 235 238 243 243 243 243 245 246 248 254 259 261 255 254 257 259 259 266 268 268 269 266 264 262 259 256 254 250 247 248 249 247 249 250
87 102 121 146 167 177 193 211 220 235 242 245 246 246 248 247 246 249 254 258 260 254 253 254 257 261 262 272 278 274 269 264 259 256 257 255 250 246 245 248 248 248 247
81 88 97 114 133 152 163 189 213 231 239 242 246 254 254 252 250 247 253 258 254 251 255 260 261 263 263 265 273 274 266 257 251 249 250 252 250 248 246 245 245 245 247
76 80 88 97 116 140 152 171 228 275 277 280 268 262 259 257 254 251 253 257 257 255 258 260 259 259 264 252 258 285 287 277 247 239 247 247 250 249 246 243 242 241 242
71 72 79 85 99 114 136 152 177 235 247 244 259 271 274 269 262 255 256 259 259 256 259 260 256 250 254 256 235 250 274 281 305 253 237 244 249 250 250 247 244 243 241
76 76 80 83 86 96 128 163 212 306 332 347 335 316 303 285 274 267 264 263 263 258 257 259 255 252 253 258 253 236 245 266 280 289 260 246 250 255 258 256 252 249 245
85 82 83 85 81 82 90 83 314 323 331 329 321 313 312 302 285 275 270 266 262 260 259 260 259 252 246 248 252 252 248 250 249 257 275 277 268 257 254 254 256 253 249
97 90 87 87 80 75 74 66 12 347 331 326 326 324 319 311 298 283 275 268 264 262 261 260 259 256 251 251 251 250 251 250 250 253 266 272 274 271 266 258 252 252 251